Weather History for Udon Thani, Thailand

Change the Weather History Date:

Tuesday, February 18, 2014

  Actual Average Record
Temperature  
Mean Temperature 83 °F -  
Max Temperature 94 °F 92 °F - ()
Min Temperature 72 °F 69 °F - ()
Cooling Degree Days 18    
Growing Degree Days 33 (Base 50)    
Moisture  
Dew Point 64 °F    
Average Humidity 50    
Maximum Humidity 84    
Minimum Humidity 29    
Precipitation  
Precipitation 0.00 in 0.04 in - ()
Sea Level Pressure  
Sea Level Pressure 29.86 in    
Wind  
Wind Speed 2 mph ()    
Max Wind Speed 8 mph    
Max Gust Speed -    
Visibility 3.1 miles    
Events      
T = Trace of Precipitation, MM = Missing Value Source: Averaged Metar Reports

Daily Weather History Graph

Daily Weather History Graph

Search for Another Location

Airport:

Trip Planner

Search our weather history database for the weather conditions in past years. The results will help you decide how hot, cold, wet, or windy it might be!

Date:

Astronomy

Feb. 18, 2014 Rise Set
Actual Time 6:34 AM ICT 6:11 PM ICT
Civil Twilight 6:12 AM ICT 6:33 PM ICT
Nautical Twilight 5:46 AM ICT 6:59 PM ICT
Astronomical Twilight 5:21 AM ICT 7:24 PM ICT
Moon 8:56 PM ICT (2/18) 8:21 AM ICT (2/18)
Length of Visible Light 12h 21m
Length of Day
11h 37m
Waning Gibbous, 90% of the Moon is Illuminated
Feb 18
Waning Gibbous
Feb 23
Last Quarter
Mar 1
New
Mar 8
First Quarter
Mar 17
Full

Hourly Weather History & Observations

Time (ICT) Temp. Heat Index Dew Point Humidity Pressure Visibility Wind Dir Wind Speed Gust Speed Precip Events Conditions
1:00 AM 76 °F - 70 °F 78% 29.87 in 2 mi Calm Calm - -   Mist
4:00 AM 74 °F - 69 °F 81% 29.85 in 2 mi Calm Calm - -   Mist
6:00 AM 73.4 °F - 68.0 °F 83% 29.89 in 1.6 mi Calm Calm - N/A   Scattered Clouds
7:00 AM 73 °F - 69 °F 84% 29.92 in 1 mi Calm Calm - -   Mist
7:00 AM 75.2 °F - 68.0 °F 78% 29.92 in 1.2 mi Calm Calm - N/A   Scattered Clouds
8:00 AM 77.0 °F - 68.0 °F 74% 29.95 in 1.9 mi Calm Calm - N/A   Partly Cloudy
9:00 AM 82.4 °F 84.6 °F 66.2 °F 58% 29.95 in 1.9 mi Variable 3.5 mph - N/A   Haze
10:00 AM 86 °F - 68 °F 46% 29.94 in 3 mi NW 3.5 mph - -   Haze
10:00 AM 86.0 °F 87.3 °F 64.4 °F 48% 29.98 in 3.1 mi NW 3.5 mph - N/A   Haze
11:00 AM 87.8 °F 88.5 °F 62.6 °F 43% 29.95 in 4.3 mi WNW 8.1 mph - N/A   Partly Cloudy
12:00 PM 89.6 °F 88.9 °F 59.0 °F 36% 29.92 in 3.7 mi NNW 8.1 mph - N/A   Partly Cloudy
1:00 PM 93 °F - 65 °F 29% 29.85 in 4 mi NNE 2.3 mph - -   Haze
1:00 PM 93.2 °F 92.6 °F 59.0 °F 32% 29.86 in 3.7 mi Variable 5.8 mph - N/A   Scattered Clouds
2:00 PM 93.2 °F 92.6 °F 59.0 °F 32% 29.83 in 3.7 mi South 4.6 mph - N/A   Scattered Clouds
3:00 PM 93.2 °F 92.6 °F 59.0 °F 32% 29.80 in 3.7 mi Variable 4.6 mph - N/A   Scattered Clouds
4:00 PM 94 °F - 65 °F 29% 29.75 in 4 mi ENE 3.5 mph - -   Haze
4:00 PM 91.4 °F 90.7 °F 59.0 °F 34% 29.77 in 3.7 mi ESE 4.6 mph - N/A   Scattered Clouds
5:00 PM 91.4 °F 90.7 °F 59.0 °F 34% 29.77 in 3.7 mi NE 3.5 mph - N/A   Mostly Cloudy
6:00 PM 89.6 °F 89.5 °F 60.8 °F 38% 29.80 in 3.7 mi Calm Calm - N/A   Mostly Cloudy
7:00 PM 88 °F - 67 °F 40% 29.78 in 4 mi NNW 5.8 mph - -   Haze
7:00 PM 87.8 °F 87.1 °F 59.0 °F 38% 29.80 in 3.7 mi NNW 3.5 mph - N/A   Mostly Cloudy
8:00 PM 84.2 °F 84.4 °F 60.8 °F 45% 29.83 in 3.7 mi Calm Calm - N/A   Scattered Clouds
9:00 PM 82.4 °F 83.4 °F 62.6 °F 51% 29.83 in 3.7 mi Calm Calm - N/A   Scattered Clouds
10:00 PM 83 °F - 68 °F 52% 29.85 in 4 mi Calm Calm - -   Haze